When you browse on this site, cookies collect data to enhance your experience and personalize the content and advertising you see.
Visit our Privacy Policy to learn more. By continuing to use the site, you agree to this use of cookies and data.
  • In Austria
  • List of Countries
  • For 7 days
  • Water Temperature
  • Weather Map
  • News
  • Weather Widgets
  • user-avatar
    Login

    Hourly Weather Lyahovichi

    Today, 7 June, Sunday

    Time Temperature Precipitation Wind Pressure Humidity
    00:00 +16°C° 0 mm 1 mps 747 mmHg 88%
    01:00 +16°C° 0 mm 1 mps 747 mmHg 89%
    02:00 +16°C° 0 mm 1 mps 747 mmHg 90%
    03:00 +16°C° 0 mm 1 mps 747 mmHg 90%
    04:00 +16°C° 0 mm 2 mps 747 mmHg 90%
    05:00 +16°C° 0 mm 2 mps 747 mmHg 90%
    06:00 +18°C° 0 mm 2 mps 748 mmHg 87%
    07:00 +19°C° 0 mm 3 mps 748 mmHg 84%
    08:00 +21°C° 0 mm 3 mps 748 mmHg 81%
    09:00 +22°C° 0 mm 3 mps 748 mmHg 77%
    10:00 +24°C° 0 mm 3 mps 748 mmHg 72%
    11:00 +26°C° 0 mm 3 mps 748 mmHg 68%
    12:00 +26°C° 0 mm 3 mps 748 mmHg 67%
    13:00 +27°C° 0 mm 4 mps 748 mmHg 66%
    14:00 +28°C° 0 mm 4 mps 747 mmHg 65%
    15:00 +28°C° 0.1 mm 4 mps 747 mmHg 64%
    16:00 +28°C° 0.1 mm 4 mps 747 mmHg 62%
    17:00 +28°C° 0.1 mm 4 mps 746 mmHg 61%
    18:00 +26°C° 0 mm 4 mps 746 mmHg 67%
    19:00 +24°C° 0 mm 3 mps 746 mmHg 73%
    20:00 +21°C° 0 mm 3 mps 746 mmHg 79%
    21:00 +20°C° 0 mm 3 mps 747 mmHg 82%
    22:00 +19°C° 0 mm 3 mps 747 mmHg 85%
    23:00 +18°C° 0 mm 3 mps 747 mmHg 88%

    Tomorrow, 8 June, Monday

    Time Temperature Precipitation Wind Pressure Humidity
    00:00 +18°C° 0 mm 3 mps 747 mmHg 90%
    01:00 +18°C° 0 mm 3 mps 747 mmHg 92%
    02:00 +17°C° 0 mm 3 mps 747 mmHg 93%
    03:00 +17°C° 0 mm 3 mps 747 mmHg 93%
    04:00 +17°C° 0 mm 3 mps 747 mmHg 92%
    05:00 +17°C° 0 mm 3 mps 746 mmHg 92%
    06:00 +19°C° 0 mm 3 mps 747 mmHg 85%
    07:00 +21°C° 0 mm 4 mps 747 mmHg 78%
    08:00 +23°C° 0 mm 4 mps 747 mmHg 72%
    09:00 +25°C° 0 mm 4 mps 747 mmHg 66%
    10:00 +27°C° 0 mm 4 mps 747 mmHg 60%
    11:00 +29°C° 0 mm 4 mps 748 mmHg 54%
    12:00 +29°C° 0 mm 4 mps 747 mmHg 52%
    13:00 +30°C° 0 mm 4 mps 747 mmHg 50%
    14:00 +30°C° 0 mm 4 mps 747 mmHg 48%
    15:00 +29°C° 0 mm 4 mps 747 mmHg 52%
    16:00 +29°C° 0 mm 4 mps 747 mmHg 57%
    17:00 +28°C° 0 mm 4 mps 746 mmHg 61%
    18:00 +27°C° 0 mm 3 mps 746 mmHg 67%
    19:00 +25°C° 0 mm 3 mps 746 mmHg 72%
    20:00 +22°C° 0 mm 3 mps 746 mmHg 78%
    21:00 +21°C° 0 mm 3 mps 747 mmHg 82%
    22:00 +20°C° 0 mm 3 mps 747 mmHg 86%
    23:00 +19°C° 0 mm 2 mps 747 mmHg 90%

    Day after tomorrow, 9 June, Tuesday

    Time Temperature Precipitation Wind Pressure Humidity
    00:00 +19°C° 0 mm 2 mps 747 mmHg 91%
    01:00 +18°C° 0 mm 2 mps 747 mmHg 93%
    02:00 +18°C° 0 mm 2 mps 747 mmHg 94%
    03:00 +18°C° 0 mm 3 mps 747 mmHg 94%
    04:00 +18°C° 0 mm 3 mps 747 mmHg 93%
    05:00 +19°C° 0 mm 3 mps 747 mmHg 93%
    06:00 +20°C° 0 mm 3 mps 747 mmHg 88%
    07:00 +22°C° 0 mm 3 mps 747 mmHg 83%
    08:00 +24°C° 0 mm 3 mps 747 mmHg 78%
    09:00 +25°C° 0 mm 4 mps 747 mmHg 70%
    10:00 +27°C° 0 mm 4 mps 747 mmHg 62%
    11:00 +28°C° 0 mm 5 mps 747 mmHg 55%
    12:00 +29°C° 0 mm 5 mps 747 mmHg 53%
    13:00 +30°C° 0 mm 5 mps 747 mmHg 52%
    14:00 +30°C° 0 mm 5 mps 747 mmHg 50%
    15:00 +30°C° 0 mm 4 mps 747 mmHg 53%
    16:00 +29°C° 0 mm 4 mps 747 mmHg 56%
    17:00 +29°C° 0 mm 4 mps 746 mmHg 59%
    18:00 +27°C° 0 mm 3 mps 746 mmHg 66%
    19:00 +26°C° 0 mm 3 mps 747 mmHg 72%
    20:00 +24°C° 0 mm 2 mps 747 mmHg 79%
    21:00 +22°C° 0 mm 3 mps 747 mmHg 82%
    22:00 +22°C° 0 mm 3 mps 747 mmHg 85%
    23:00 +21°C° 0 mm 3 mps 747 mmHg 87%

    10 June, Wednesday

    Time Temperature Precipitation Wind Pressure Humidity
    00:00 +21°C° 0 mm 3 mps 747 mmHg 90%
    01:00 +20°C° 0 mm 3 mps 747 mmHg 92%
    02:00 +20°C° 0 mm 3 mps 747 mmHg 95%
    03:00 +20°C° 0.4 mm 3 mps 747 mmHg 95%
    04:00 +20°C° 0.4 mm 3 mps 747 mmHg 95%
    05:00 +20°C° 0.4 mm 3 mps 747 mmHg 94%
    06:00 +21°C° 0 mm 3 mps 747 mmHg 90%
    07:00 +22°C° 0 mm 3 mps 747 mmHg 85%
    08:00 +25°C° 0 mm 4 mps 747 mmHg 80%
    09:00 +26°C° 0 mm 4 mps 747 mmHg 73%
    10:00 +28°C° 0 mm 4 mps 747 mmHg 66%
    11:00 +29°C° 0 mm 5 mps 747 mmHg 60%
    12:00 +30°C° 0.1 mm 5 mps 746 mmHg 57%
    13:00 +30°C° 0.1 mm 5 mps 746 mmHg 54%
    14:00 +32°C° 0.1 mm 5 mps 746 mmHg 51%
    15:00 +32°C° 0.2 mm 5 mps 746 mmHg 54%
    16:00 +30°C° 0.2 mm 4 mps 746 mmHg 56%
    17:00 +30°C° 0.2 mm 4 mps 746 mmHg 59%
    18:00 +28°C° 0.1 mm 3 mps 746 mmHg 66%
    19:00 +26°C° 0.1 mm 3 mps 746 mmHg 73%
    20:00 +24°C° 0.1 mm 2 mps 746 mmHg 80%
    21:00 +23°C° 0.1 mm 2 mps 746 mmHg 84%
    22:00 +21°C° 0.1 mm 2 mps 746 mmHg 88%
    23:00 +20°C° 0.1 mm 2 mps 746 mmHg 91%

    11 June, Thursday

    Time Temperature Precipitation Wind Pressure Humidity
    00:00 +20°C° 0 mm 2 mps 746 mmHg 93%
    01:00 +20°C° 0 mm 2 mps 746 mmHg 94%
    02:00 +20°C° 0 mm 2 mps 746 mmHg 96%
    03:00 +20°C° 0 mm 2 mps 746 mmHg 96%
    04:00 +20°C° 0 mm 2 mps 746 mmHg 96%
    05:00 +20°C° 0 mm 3 mps 746 mmHg 96%
    06:00 +21°C° 0 mm 3 mps 746 mmHg 90%
    07:00 +24°C° 0 mm 3 mps 746 mmHg 85%
    08:00 +26°C° 0 mm 3 mps 746 mmHg 80%
    09:00 +27°C° 0.1 mm 3 mps 746 mmHg 74%
    10:00 +28°C° 0.1 mm 4 mps 746 mmHg 68%
    11:00 +30°C° 0.1 mm 4 mps 746 mmHg 62%
    12:00 +30°C° 0.2 mm 4 mps 746 mmHg 59%
    13:00 +32°C° 0.2 mm 4 mps 746 mmHg 56%
    14:00 +32°C° 0.2 mm 4 mps 746 mmHg 53%
    15:00 +32°C° 0 mm 4 mps 745 mmHg 55%
    16:00 +32°C° 0 mm 4 mps 745 mmHg 57%
    17:00 +30°C° 0 mm 4 mps 745 mmHg 59%
    18:00 +29°C° 0 mm 3 mps 745 mmHg 65%
    19:00 +27°C° 0 mm 3 mps 745 mmHg 71%
    20:00 +25°C° 0 mm 3 mps 745 mmHg 77%
    21:00 +24°C° 0 mm 3 mps 745 mmHg 81%
    22:00 +23°C° 0 mm 2 mps 746 mmHg 85%
    23:00 +21°C° 0 mm 2 mps 746 mmHg 89%

    12 June, Friday

    Time Temperature Precipitation Wind Pressure Humidity
    00:00 +21°C° 0.1 mm 2 mps 746 mmHg 91%
    01:00 +20°C° 0.1 mm 2 mps 746 mmHg 93%
    02:00 +20°C° 0.1 mm 2 mps 745 mmHg 95%
    03:00 +20°C° 0 mm 2 mps 745 mmHg 96%
    04:00 +20°C° 0 mm 2 mps 745 mmHg 96%
    05:00 +20°C° 0 mm 2 mps 745 mmHg 96%
    06:00 +21°C° 0 mm 3 mps 745 mmHg 91%
    07:00 +24°C° 0 mm 3 mps 745 mmHg 87%
    08:00 +26°C° 0 mm 3 mps 746 mmHg 82%
    09:00 +27°C° 0 mm 3 mps 745 mmHg 74%
    10:00 +28°C° 0 mm 4 mps 745 mmHg 66%
    11:00 +30°C° 0 mm 4 mps 745 mmHg 58%
    12:00 +30°C° 0 mm 4 mps 745 mmHg 55%
    13:00 +32°C° 0 mm 4 mps 745 mmHg 53%
    14:00 +32°C° 0 mm 4 mps 744 mmHg 51%
    15:00 +32°C° 0 mm 4 mps 744 mmHg 53%
    16:00 +31°C° 0 mm 3 mps 744 mmHg 56%
    17:00 +31°C° 0 mm 3 mps 744 mmHg 58%
    18:00 +29°C° 0 mm 3 mps 744 mmHg 65%
    19:00 +28°C° 0 mm 3 mps 744 mmHg 71%
    20:00 +26°C° 0 mm 3 mps 744 mmHg 78%
    21:00 +25°C° 0 mm 3 mps 744 mmHg 81%
    22:00 +24°C° 0 mm 3 mps 745 mmHg 83%
    23:00 +22°C° 0 mm 3 mps 745 mmHg 86%
    Show more